Location: Capannuccia
(43.7000°N, 11.3000°E)
Time: 20:40:40
(UTC+00:00)

Cosmos 1842 Rocket - Pass Details

Date: 07 June 2020
Orbit: 605 x 634 km, 82.5° (Epoch: 11 July)

Event Time Altitude Azimuth Distance (km) Brightness Sun altitude
Rises 00:37:14 0° 356° (N) 2,935 8.2 -20.8°
Reaches altitude 10° 00:39:34 10° 2° (N) 2,019 7.2 -20.7°
Maximum altitude 00:43:54 49° 78° (ENE) 811 4.3 -20.4°
Enters shadow 00:46:05 26° 140° (SE) 1,230 4.8 -20.2°
